Voltar ao catálogo

CZ-6A DEB

AtivoPO
NORAD 61317·DEBRIS·🇨🇳 China

Lançado Aug 6, 2024 de Taiyuan Satellite Launch Center

Loading…

Próximas Passagens (próximas 24 horas)

TLE

AtualizadoSource: Space-Track

Época: Sep 14, 2026, 09:46 UTC

1 61317U 24140UE  26257.40737749  .00001408  00000-0  86953-3 0  9999
2 61317  88.7085 242.0591 0128374 333.6597  25.8091 14.00881562104476

Acompanhe CZ-6A DEB em tempo real com AllMySat

Download on the App Store